CALSPHERE 4A

Last updated on Fri Dec 29 2023 00:03:35 GMT+0000 (Coordinated Universal Time)

1 01520U 65065H 23362.38142490 .00000140 00000+0 25066-3 0 9993 2 01520 89.9589 128.8548 0070515 127.2579 288.6388 13.36019645842695
UTC large
Height (km)
Speed (km/s)
/
Latitude / Longitude
Inclination (degrees)
Orbital Period (minutes)
Azimuth
Elevation
Range (km)
Doppler Factor

Next 0 passes for location: London (51.5072 / 0.1276)

Sorry there are no passes over London.